Time,TemperatureF,DewpointF,PressureIn,WindDirection,WindDirectionDegrees,WindSpeedMPH,WindSpeedGustMPH,Humidity,HourlyPrecipIn,Conditions,Clouds,dailyrainin,SoftwareType,DateUTC
2013-03-01 00:01:00,42.3,34.6,30.05,NNE,17,5.0,9.0,74,0.00,,,0.00,WeatherTracker,2013-03-01 06:01:00,
2013-03-01 00:06:00,42.2,34.5,30.05,NNW,329,5.0,7.0,74,0.00,,,0.00,WeatherTracker,2013-03-01 06:06:00,
2013-03-01 00:11:00,42.2,34.5,30.05,NNW,348,5.0,7.0,74,0.00,,,0.00,WeatherTracker,2013-03-01 06:11:00,
2013-03-01 00:16:00,42.1,34.4,30.05,North,351,4.0,6.0,74,0.00,,,0.00,WeatherTracker,2013-03-01 06:16:00,
2013-03-01 00:21:00,42.0,34.3,30.05,NNW,341,6.0,7.0,74,0.00,,,0.00,WeatherTracker,2013-03-01 06:21:00,
2013-03-01 00:26:00,42.0,34.3,30.05,North,355,4.0,7.0,74,0.00,,,0.00,WeatherTracker,2013-03-01 06:26:00,
2013-03-01 00:31:00,41.9,33.9,30.06,North,349,7.0,7.0,73,0.00,,,0.00,WeatherTracker,2013-03-01 06:31:00,
2013-03-01 00:36:00,41.9,33.9,30.06,North,355,4.0,10.0,73,0.00,,,0.00,WeatherTracker,2013-03-01 06:36:00,
2013-03-01 00:42:00,41.8,34.1,30.05,NNW,341,3.0,10.0,74,0.00,,,0.00,WeatherTracker,2013-03-01 06:42:00,
2013-03-01 00:47:00,41.7,34.4,30.06,NNW,346,4.0,5.0,75,0.00,,,0.00,WeatherTracker,2013-03-01 06:47:00,
2013-03-01 00:52:00,41.5,34.2,30.06,NNW,346,3.0,5.0,75,0.00,,,0.00,WeatherTracker,2013-03-01 06:52:00,
2013-03-01 00:57:00,41.4,34.4,30.05,North,355,3.0,5.0,76,0.00,,,0.00,WeatherTracker,2013-03-01 06:57:00,
2013-03-01 01:02:00,41.3,34.3,30.06,NNW,346,6.0,6.0,76,0.00,,,0.00,WeatherTracker,2013-03-01 07:02:00,
2013-03-01 01:07:00,41.2,33.9,30.05,NNW,343,6.0,8.0,75,0.00,,,0.00,WeatherTracker,2013-03-01 07:07:00,
2013-03-01 01:12:00,41.2,32.9,30.06,NNW,343,6.0,12.0,72,0.00,,,0.00,WeatherTracker,2013-03-01 07:12:00,
2013-03-01 01:17:00,41.2,32.5,30.06,NNW,346,4.0,12.0,71,0.00,,,0.00,WeatherTracker,2013-03-01 07:17:00,
2013-03-01 01:22:00,41.2,32.5,30.05,North,351,3.0,10.0,71,0.00,,,0.00,WeatherTracker,2013-03-01 07:22:00,
2013-03-01 01:27:00,41.1,32.4,30.05,NNW,338,5.0,8.0,71,0.00,,,0.00,WeatherTracker,2013-03-01 07:27:00,
2013-03-01 01:32:00,41.0,32.3,30.06,NNW,339,3.0,8.0,71,0.00,,,0.00,WeatherTracker,2013-03-01 07:32:00,
2013-03-01 01:37:00,40.9,32.9,30.05,NNW,340,2.0,7.0,73,0.00,,,0.00,WeatherTracker,2013-03-01 07:37:00,
2013-03-01 01:42:00,40.6,32.6,30.05,NNW,347,3.0,7.0,73,0.00,,,0.00,WeatherTracker,2013-03-01 07:42:00,
2013-03-01 01:47:00,40.5,32.9,30.05,NNW,348,3.0,7.0,74,0.00,,,0.00,WeatherTracker,2013-03-01 07:47:00,
2013-03-01 01:52:00,40.2,32.2,30.05,NNW,340,4.0,7.0,73,0.00,,,0.00,WeatherTracker,2013-03-01 07:52:00,
2013-03-01 01:57:00,40.0,32.4,30.05,North,360,3.0,7.0,74,0.00,,,0.00,WeatherTracker,2013-03-01 07:57:00,
2013-03-01 02:02:00,39.8,32.2,30.05,NNW,332,3.0,6.0,74,0.00,,,0.00,WeatherTracker,2013-03-01 08:02:00,
2013-03-01 02:07:00,39.6,32.3,30.05,NNW,332,1.0,5.0,75,0.00,,,0.00,WeatherTracker,2013-03-01 08:07:00,
2013-03-01 02:12:00,39.2,32.0,30.05,NNW,332,1.0,4.0,75,0.00,,,0.00,WeatherTracker,2013-03-01 08:12:00,
2013-03-01 02:17:00,39.1,31.9,30.05,NNW,332,2.0,4.0,75,0.00,,,0.00,WeatherTracker,2013-03-01 08:17:00,
2013-03-01 02:22:00,38.9,31.7,30.04,NNW,332,2.0,4.0,75,0.00,,,0.00,WeatherTracker,2013-03-01 08:22:00,
2013-03-01 02:27:00,38.8,31.9,30.05,NNW,332,2.0,4.0,76,0.00,,,0.00,WeatherTracker,2013-03-01 08:27:00,
2013-03-01 02:32:00,38.7,32.1,30.05,NNW,332,4.0,5.0,77,0.00,,,0.00,WeatherTracker,2013-03-01 08:32:00,
2013-03-01 02:38:00,38.4,31.8,30.04,NNW,332,3.0,6.0,77,0.00,,,0.00,WeatherTracker,2013-03-01 08:38:00,
2013-03-01 02:43:00,38.4,31.8,30.04,NW,326,2.0,7.0,77,0.00,,,0.00,WeatherTracker,2013-03-01 08:43:00,
2013-03-01 02:48:00,38.3,31.4,30.04,NW,311,7.0,9.0,76,0.00,,,0.00,WeatherTracker,2013-03-01 08:48:00,
2013-03-01 02:53:00,38.2,31.3,30.04,NNW,329,4.0,9.0,76,0.00,,,0.00,WeatherTracker,2013-03-01 08:53:00,
2013-03-01 02:58:00,38.0,31.1,30.04,NW,320,2.0,8.0,76,0.00,,,0.00,WeatherTracker,2013-03-01 08:58:00,
2013-03-01 03:03:00,37.9,31.3,30.04,NW,320,2.0,6.0,77,0.00,,,0.00,WeatherTracker,2013-03-01 09:03:00,
2013-03-01 03:08:00,37.7,31.2,30.05,NNW,330,3.0,6.0,77,0.00,,,0.00,WeatherTracker,2013-03-01 09:08:00,
2013-03-01 03:13:00,37.5,31.0,30.04,NNW,330,2.0,6.0,77,0.00,,,0.00,WeatherTracker,2013-03-01 09:13:00,
2013-03-01 03:18:00,37.4,30.9,30.04,NNW,330,2.0,5.0,77,0.00,,,0.00,WeatherTracker,2013-03-01 09:18:00,
2013-03-01 03:23:00,37.2,31.0,30.04,NNW,330,3.0,4.0,78,0.00,,,0.00,WeatherTracker,2013-03-01 09:23:00,
2013-03-01 03:28:00,37.0,30.8,30.04,NNW,330,1.0,4.0,78,0.00,,,0.00,WeatherTracker,2013-03-01 09:28:00,
2013-03-01 03:33:00,36.8,30.9,30.04,NNW,330,0.0,4.0,79,0.00,,,0.00,WeatherTracker,2013-03-01 09:33:00,
2013-03-01 03:38:00,36.6,30.7,30.04,NNW,330,0.0,2.0,79,0.00,,,0.00,WeatherTracker,2013-03-01 09:38:00,
2013-03-01 03:43:00,36.4,30.5,30.04,NNW,330,1.0,2.0,79,0.00,,,0.00,WeatherTracker,2013-03-01 09:43:00,
2013-03-01 03:48:00,36.1,30.2,30.04,NNW,330,1.0,3.0,79,0.00,,,0.00,WeatherTracker,2013-03-01 09:48:00,
2013-03-01 03:53:00,35.9,30.3,30.04,NNW,330,0.0,3.0,80,0.00,,,0.00,WeatherTracker,2013-03-01 09:53:00,
2013-03-01 03:58:00,35.7,30.1,30.04,NNW,330,2.0,3.0,80,0.00,,,0.00,WeatherTracker,2013-03-01 09:58:00,
2013-03-01 04:03:00,35.6,30.1,30.04,NNW,330,3.0,4.0,80,0.00,,,0.00,WeatherTracker,2013-03-01 10:03:00,
2013-03-01 04:08:00,35.5,30.0,30.03,NNW,330,2.0,5.0,80,0.00,,,0.00,WeatherTracker,2013-03-01 10:08:00,
2013-03-01 04:13:00,35.5,30.0,30.03,NNW,330,2.0,5.0,80,0.00,,,0.00,WeatherTracker,2013-03-01 10:13:00,
2013-03-01 04:18:00,35.6,29.7,30.03,NNW,330,5.0,5.0,79,0.00,,,0.00,WeatherTracker,2013-03-01 10:18:00,
2013-03-01 04:23:00,35.6,29.7,30.03,NNW,330,2.0,5.0,79,0.00,,,0.00,WeatherTracker,2013-03-01 10:23:00,
2013-03-01 04:28:00,35.5,29.6,30.03,NNW,330,2.0,5.0,79,0.00,,,0.00,WeatherTracker,2013-03-01 10:28:00,
2013-03-01 04:33:00,35.4,29.9,30.03,NNW,330,2.0,4.0,80,0.00,,,0.00,WeatherTracker,2013-03-01 10:33:00,
2013-03-01 04:38:00,35.3,29.8,30.03,NNW,330,2.0,4.0,80,0.00,,,0.00,WeatherTracker,2013-03-01 10:38:00,
2013-03-01 04:43:00,35.2,29.7,30.03,NNW,330,0.0,4.0,80,0.00,,,0.00,WeatherTracker,2013-03-01 10:43:00,
2013-03-01 04:49:00,35.2,30.3,30.04,NNW,330,1.0,4.0,82,0.00,,,0.00,WeatherTracker,2013-03-01 10:49:00,
2013-03-01 04:54:00,35.1,30.2,30.04,NNW,330,0.0,5.0,82,0.00,,,0.00,WeatherTracker,2013-03-01 10:54:00,
2013-03-01 04:59:00,35.1,30.5,30.04,NW,313,2.0,5.0,83,0.00,,,0.00,WeatherTracker,2013-03-01 10:59:00,
2013-03-01 05:04:00,35.1,30.5,30.05,NW,319,3.0,5.0,83,0.00,,,0.00,WeatherTracker,2013-03-01 11:04:00,
2013-03-01 05:09:00,35.2,30.6,30.05,NW,319,3.0,5.0,83,0.00,,,0.00,WeatherTracker,2013-03-01 11:09:00,
2013-03-01 05:14:00,35.3,30.7,30.05,NW,319,3.0,4.0,83,0.00,,,0.00,WeatherTracker,2013-03-01 11:14:00,
2013-03-01 05:19:00,35.5,30.6,30.05,NW,319,2.0,4.0,82,0.00,,,0.00,WeatherTracker,2013-03-01 11:19:00,
2013-03-01 05:24:00,35.6,30.7,30.05,NW,319,4.0,4.0,82,0.00,,,0.00,WeatherTracker,2013-03-01 11:24:00,
2013-03-01 05:29:00,35.7,30.8,30.05,NW,319,1.0,5.0,82,0.00,,,0.00,WeatherTracker,2013-03-01 11:29:00,
2013-03-01 05:34:00,35.8,30.9,30.06,NW,319,3.0,5.0,82,0.00,,,0.00,WeatherTracker,2013-03-01 11:34:00,
2013-03-01 05:39:00,35.9,31.0,30.05,NW,319,3.0,5.0,82,0.00,,,0.00,WeatherTracker,2013-03-01 11:39:00,
2013-03-01 05:44:00,36.0,30.7,30.05,NNW,331,3.0,7.0,81,0.00,,,0.00,WeatherTracker,2013-03-01 11:44:00,
2013-03-01 05:49:00,36.1,30.5,30.05,NNW,348,3.0,8.0,80,0.00,,,0.00,WeatherTracker,2013-03-01 11:49:00,
2013-03-01 05:54:00,36.2,30.6,30.05,NW,319,5.0,8.0,80,0.00,,,0.00,WeatherTracker,2013-03-01 11:54:00,
2013-03-01 05:59:00,36.3,30.7,30.05,NNW,331,5.0,6.0,80,0.00,,,0.00,WeatherTracker,2013-03-01 11:59:00,
2013-03-01 06:04:00,36.4,30.8,30.06,NNW,332,3.0,7.0,80,0.00,,,0.00,WeatherTracker,2013-03-01 12:04:00,
2013-03-01 06:09:00,36.4,30.8,30.06,NW,325,2.0,7.0,80,0.00,,,0.00,WeatherTracker,2013-03-01 12:09:00,
2013-03-01 06:14:00,36.3,31.0,30.07,NW,321,2.0,7.0,81,0.00,,,0.00,WeatherTracker,2013-03-01 12:14:00,
2013-03-01 06:19:00,36.3,31.0,30.06,NW,320,7.0,7.0,81,0.00,,,0.00,WeatherTracker,2013-03-01 12:19:00,
2013-03-01 06:24:00,36.2,30.9,30.06,WNW,299,2.0,7.0,81,0.00,,,0.00,WeatherTracker,2013-03-01 12:24:00,
2013-03-01 06:29:00,36.2,30.6,30.06,NNW,343,3.0,8.0,80,0.00,,,0.00,WeatherTracker,2013-03-01 12:29:00,
2013-03-01 06:34:00,36.2,30.9,30.06,NNW,342,4.0,8.0,81,0.00,,,0.00,WeatherTracker,2013-03-01 12:34:00,
2013-03-01 06:39:00,36.2,30.9,30.06,NW,323,4.0,6.0,81,0.00,,,0.00,WeatherTracker,2013-03-01 12:39:00,
2013-03-01 06:44:00,36.2,30.9,30.06,NW,324,6.0,6.0,81,0.00,,,0.00,WeatherTracker,2013-03-01 12:44:00,
2013-03-01 06:49:00,36.2,30.9,30.07,NW,322,5.0,7.0,81,0.00,,,0.00,WeatherTracker,2013-03-01 12:49:00,
2013-03-01 06:55:00,36.4,31.1,30.07,WNW,294,3.0,7.0,81,0.00,,,0.00,WeatherTracker,2013-03-01 12:55:00,
2013-03-01 07:00:00,36.6,31.3,30.07,NW,304,4.0,7.0,81,0.00,,,0.00,WeatherTracker,2013-03-01 13:00:00,
2013-03-01 07:05:00,36.8,31.5,30.07,NW,319,3.0,6.0,81,0.00,,,0.00,WeatherTracker,2013-03-01 13:05:00,
2013-03-01 07:10:00,37.1,32.1,30.07,NW,312,5.0,6.0,82,0.00,,,0.00,WeatherTracker,2013-03-01 13:10:00,
2013-03-01 07:15:00,37.5,31.9,30.08,NW,324,4.0,7.0,80,0.00,,,0.00,WeatherTracker,2013-03-01 13:15:00,
2013-03-01 07:20:00,37.8,31.9,30.08,NW,310,8.0,8.0,79,0.00,,,0.00,WeatherTracker,2013-03-01 13:20:00,
2013-03-01 07:25:00,38.2,32.0,30.08,NW,321,1.0,8.0,78,0.00,,,0.00,WeatherTracker,2013-03-01 13:25:00,
2013-03-01 07:30:00,38.8,32.2,30.08,North,5,5.0,8.0,77,0.00,,,0.00,WeatherTracker,2013-03-01 13:30:00,
2013-03-01 07:35:00,39.4,33.1,30.08,NNW,347,7.0,8.0,78,0.00,,,0.00,WeatherTracker,2013-03-01 13:35:00,
2013-03-01 07:40:00,39.7,32.4,30.08,NNE,17,5.0,9.0,75,0.00,,,0.00,WeatherTracker,2013-03-01 13:40:00,
2013-03-01 07:45:00,39.9,33.0,30.09,NNW,342,4.0,9.0,76,0.00,,,0.00,WeatherTracker,2013-03-01 13:45:00,
2013-03-01 07:50:00,40.1,32.5,30.08,NNW,348,8.0,10.0,74,0.00,,,0.00,WeatherTracker,2013-03-01 13:50:00,
2013-03-01 07:55:00,40.2,32.2,30.09,North,5,7.0,13.0,73,0.00,,,0.00,WeatherTracker,2013-03-01 13:55:00,
2013-03-01 08:00:00,40.5,32.5,30.08,NNW,347,12.0,13.0,73,0.00,,,0.00,WeatherTracker,2013-03-01 14:00:00,
2013-03-01 08:05:00,40.7,32.4,30.09,North,355,7.0,14.0,72,0.00,,,0.00,WeatherTracker,2013-03-01 14:05:00,
2013-03-01 08:10:00,40.9,32.6,30.09,NW,321,7.0,14.0,72,0.00,,,0.00,WeatherTracker,2013-03-01 14:10:00,
2013-03-01 08:16:00,41.0,32.7,30.09,NW,312,5.0,12.0,72,0.00,,,0.00,WeatherTracker,2013-03-01 14:16:00,
2013-03-01 08:21:00,41.2,32.5,30.09,NW,321,5.0,10.0,71,0.00,,,0.00,WeatherTracker,2013-03-01 14:21:00,
2013-03-01 08:26:00,41.8,33.1,30.09,NW,321,2.0,10.0,71,0.00,,,0.00,WeatherTracker,2013-03-01 14:26:00,
2013-03-01 08:31:00,42.1,32.7,30.09,North,355,5.0,12.0,69,0.00,,,0.00,WeatherTracker,2013-03-01 14:31:00,
2013-03-01 08:36:00,42.3,32.9,30.09,North,355,5.0,15.0,69,0.00,,,0.00,WeatherTracker,2013-03-01 14:36:00,
2013-03-01 08:41:00,42.4,32.2,30.09,NNW,327,13.0,15.0,67,0.00,,,0.00,WeatherTracker,2013-03-01 14:41:00,
2013-03-01 08:46:00,42.5,32.0,30.09,NNW,329,15.0,15.0,66,0.00,,,0.00,WeatherTracker,2013-03-01 14:46:00,
2013-03-01 08:51:00,42.6,32.0,30.09,North,5,7.0,18.0,66,0.00,,,0.00,WeatherTracker,2013-03-01 14:51:00,
2013-03-01 08:56:00,42.7,32.5,30.09,NNE,21,14.0,18.0,67,0.00,,,0.00,WeatherTracker,2013-03-01 14:56:00,
2013-03-01 09:01:00,42.6,31.7,30.10,NNW,346,9.0,16.0,65,0.00,,,0.00,WeatherTracker,2013-03-01 15:01:00,
2013-03-01 09:06:00,42.6,31.3,30.10,NNE,21,6.0,16.0,64,0.00,,,0.00,WeatherTracker,2013-03-01 15:06:00,
2013-03-01 09:11:00,42.7,31.8,30.09,North,10,11.0,14.0,65,0.00,,,0.00,WeatherTracker,2013-03-01 15:11:00,
2013-03-01 09:16:00,42.9,32.3,30.09,North,5,11.0,15.0,66,0.00,,,0.00,WeatherTracker,2013-03-01 15:16:00,
2013-03-01 09:21:00,42.9,31.6,30.09,NNW,348,9.0,15.0,64,0.00,,,0.00,WeatherTracker,2013-03-01 15:21:00,
2013-03-01 09:26:00,43.0,31.7,30.09,NNE,21,7.0,15.0,64,0.00,,,0.00,WeatherTracker,2013-03-01 15:26:00,
2013-03-01 09:31:00,43.0,32.1,30.09,North,360,10.0,15.0,65,0.00,,,0.00,WeatherTracker,2013-03-01 15:31:00,
2013-03-01 09:36:00,43.2,32.2,30.09,NNE,17,7.0,15.0,65,0.00,,,0.00,WeatherTracker,2013-03-01 15:36:00,
2013-03-01 09:41:00,43.4,32.4,30.09,NNW,336,5.0,14.0,65,0.00,,,0.00,WeatherTracker,2013-03-01 15:41:00,
2013-03-01 09:46:00,43.9,32.5,30.08,NW,315,6.0,14.0,64,0.00,,,0.00,WeatherTracker,2013-03-01 15:46:00,
2013-03-01 09:51:00,44.1,31.9,30.08,NW,316,6.0,12.0,62,0.00,,,0.00,WeatherTracker,2013-03-01 15:51:00,
2013-03-01 09:57:00,44.5,32.7,30.09,NNW,343,5.0,15.0,63,0.00,,,0.00,WeatherTracker,2013-03-01 15:57:00,
2013-03-01 10:02:00,45.0,32.4,30.09,NNW,338,5.0,15.0,61,0.00,,,0.00,WeatherTracker,2013-03-01 16:02:00,
2013-03-01 10:07:00,45.6,32.9,30.09,NW,308,3.0,11.0,61,0.00,,,0.00,WeatherTracker,2013-03-01 16:07:00,
2013-03-01 10:12:00,46.4,33.3,30.08,NNW,340,9.0,11.0,60,0.00,,,0.00,WeatherTracker,2013-03-01 16:12:00,
2013-03-01 10:17:00,47.4,35.0,30.08,WNW,290,4.0,10.0,62,0.00,,,0.00,WeatherTracker,2013-03-01 16:17:00,
2013-03-01 10:22:00,48.0,33.1,30.08,NNW,330,8.0,11.0,56,0.00,,,0.00,WeatherTracker,2013-03-01 16:22:00,
2013-03-01 10:27:00,47.9,33.4,30.08,North,355,7.0,11.0,57,0.00,,,0.00,WeatherTracker,2013-03-01 16:27:00,
2013-03-01 10:32:00,47.5,33.5,30.07,North,355,8.0,16.0,58,0.00,,,0.00,WeatherTracker,2013-03-01 16:32:00,
2013-03-01 10:37:00,47.6,33.6,30.07,NNW,348,9.0,16.0,58,0.00,,,0.00,WeatherTracker,2013-03-01 16:37:00,
2013-03-01 10:42:00,47.8,33.7,30.07,NW,315,6.0,14.0,58,0.00,,,0.00,WeatherTracker,2013-03-01 16:42:00,
2013-03-01 10:47:00,47.8,34.2,30.07,NNW,345,6.0,14.0,59,0.00,,,0.00,WeatherTracker,2013-03-01 16:47:00,
2013-03-01 10:52:00,48.3,33.8,30.07,North,355,7.0,13.0,57,0.00,,,0.00,WeatherTracker,2013-03-01 16:52:00,
2013-03-01 10:57:00,48.9,34.3,30.07,NW,323,4.0,12.0,57,0.00,,,0.00,WeatherTracker,2013-03-01 16:57:00,
2013-03-01 11:02:00,48.8,33.4,30.07,North,351,5.0,14.0,55,0.00,,,0.00,WeatherTracker,2013-03-01 17:02:00,
2013-03-01 11:07:00,48.8,34.3,30.07,North,11,10.0,14.0,57,0.00,,,0.00,WeatherTracker,2013-03-01 17:07:00,
2013-03-01 11:12:00,49.4,35.2,30.07,NNW,340,7.0,14.0,58,0.00,,,0.00,WeatherTracker,2013-03-01 17:12:00,
2013-03-01 11:18:00,50.3,35.7,30.07,NNW,348,7.0,14.0,57,0.00,,,0.00,WeatherTracker,2013-03-01 17:18:00,
2013-03-01 11:23:00,50.5,34.0,30.06,North,360,8.0,13.0,53,0.00,,,0.00,WeatherTracker,2013-03-01 17:23:00,
2013-03-01 11:28:00,49.9,33.5,30.06,NNE,15,14.0,15.0,53,0.00,,,0.00,WeatherTracker,2013-03-01 17:28:00,
2013-03-01 11:33:00,49.5,34.5,30.06,NNE,19,9.0,17.0,56,0.00,,,0.00,WeatherTracker,2013-03-01 17:33:00,
2013-03-01 11:38:00,49.7,33.7,30.05,West,265,3.0,17.0,54,0.00,,,0.00,WeatherTracker,2013-03-01 17:38:00,
2013-03-01 11:43:00,50.1,34.1,30.05,North,355,9.0,16.0,54,0.00,,,0.00,WeatherTracker,2013-03-01 17:43:00,
2013-03-01 11:48:00,49.9,33.5,30.04,NW,309,5.0,16.0,53,0.00,,,0.00,WeatherTracker,2013-03-01 17:48:00,
2013-03-01 11:53:00,49.6,34.6,30.04,North,351,8.0,16.0,56,0.00,,,0.00,WeatherTracker,2013-03-01 17:53:00,
2013-03-01 11:58:00,49.7,33.7,30.04,NNW,344,7.0,16.0,54,0.00,,,0.00,WeatherTracker,2013-03-01 17:58:00,
2013-03-01 12:03:00,50.4,34.8,30.04,NNW,343,8.0,15.0,55,0.00,,,0.00,WeatherTracker,2013-03-01 18:03:00,
2013-03-01 12:08:00,50.5,34.9,30.04,NNW,329,7.0,14.0,55,0.00,,,0.00,WeatherTracker,2013-03-01 18:08:00,
2013-03-01 12:13:00,50.6,34.1,30.03,NNW,340,7.0,14.0,53,0.00,,,0.00,WeatherTracker,2013-03-01 18:13:00,
2013-03-01 12:18:00,50.4,33.4,30.03,North,5,12.0,14.0,52,0.00,,,0.00,WeatherTracker,2013-03-01 18:18:00,
2013-03-01 12:23:00,50.1,34.6,30.03,NNW,329,8.0,17.0,55,0.00,,,0.00,WeatherTracker,2013-03-01 18:23:00,
2013-03-01 12:28:00,50.5,33.1,30.03,WNW,303,6.0,17.0,51,0.00,,,0.00,WeatherTracker,2013-03-01 18:28:00,
2013-03-01 12:33:00,51.1,33.1,30.02,NW,321,8.0,16.0,50,0.00,,,0.00,WeatherTracker,2013-03-01 18:33:00,
2013-03-01 12:38:00,51.2,34.2,30.02,NNW,344,8.0,17.0,52,0.00,,,0.00,WeatherTracker,2013-03-01 18:38:00,
2013-03-01 12:43:00,51.5,34.0,30.02,WNW,286,3.0,17.0,51,0.00,,,0.00,WeatherTracker,2013-03-01 18:43:00,
2013-03-01 12:48:00,51.9,33.9,30.01,North,5,6.0,14.0,50,0.00,,,0.00,WeatherTracker,2013-03-01 18:48:00,
2013-03-01 12:54:00,51.9,34.3,30.01,NW,308,5.0,14.0,51,0.00,,,0.00,WeatherTracker,2013-03-01 18:54:00,
2013-03-01 12:59:00,51.7,33.2,30.01,NNW,343,16.0,18.0,49,0.00,,,0.00,WeatherTracker,2013-03-01 18:59:00,
2013-03-01 13:04:00,51.4,32.9,30.01,North,349,13.0,18.0,49,0.00,,,0.00,WeatherTracker,2013-03-01 19:04:00,
2013-03-01 13:09:00,51.4,33.9,30.01,WNW,287,13.0,16.0,51,0.00,,,0.00,WeatherTracker,2013-03-01 19:09:00,
2013-03-01 13:14:00,51.3,33.3,30.01,NW,313,9.0,19.0,50,0.00,,,0.00,WeatherTracker,2013-03-01 19:14:00,
2013-03-01 13:19:00,51.2,33.7,30.01,NW,320,8.0,19.0,51,0.00,,,0.00,WeatherTracker,2013-03-01 19:19:00,
2013-03-01 13:24:00,51.3,33.8,30.01,North,9,9.0,15.0,51,0.00,,,0.00,WeatherTracker,2013-03-01 19:24:00,
2013-03-01 13:29:00,51.4,33.4,30.00,North,360,12.0,16.0,50,0.00,,,0.00,WeatherTracker,2013-03-01 19:29:00,
2013-03-01 13:34:00,51.2,33.7,30.01,NW,321,11.0,21.0,51,0.00,,,0.00,WeatherTracker,2013-03-01 19:34:00,
2013-03-01 13:39:00,51.3,33.3,30.00,NW,313,7.0,21.0,50,0.00,,,0.00,WeatherTracker,2013-03-01 19:39:00,
2013-03-01 13:44:00,51.7,34.2,30.00,WNW,282,7.0,21.0,51,0.00,,,0.00,WeatherTracker,2013-03-01 19:44:00,
2013-03-01 13:49:00,51.9,33.9,30.00,NW,319,6.0,14.0,50,0.00,,,0.00,WeatherTracker,2013-03-01 19:49:00,
2013-03-01 13:54:00,52.3,33.7,30.00,NW,312,8.0,14.0,49,0.00,,,0.00,WeatherTracker,2013-03-01 19:54:00,
2013-03-01 13:59:00,52.1,33.0,30.00,WNW,298,6.0,13.0,48,0.00,,,0.00,WeatherTracker,2013-03-01 19:59:00,
2013-03-01 14:04:00,51.7,32.6,30.00,NNW,328,9.0,17.0,48,0.00,,,0.00,WeatherTracker,2013-03-01 20:04:00,
2013-03-01 14:09:00,51.7,33.7,30.00,NNW,332,6.0,17.0,50,0.00,,,0.00,WeatherTracker,2013-03-01 20:09:00,
2013-03-01 14:15:00,51.7,33.2,30.00,WNW,293,4.0,13.0,49,0.00,,,0.00,WeatherTracker,2013-03-01 20:15:00,
2013-03-01 14:20:00,51.5,33.0,30.00,North,5,7.0,13.0,49,0.00,,,0.00,WeatherTracker,2013-03-01 20:20:00,
2013-03-01 14:25:00,51.4,32.9,30.00,NW,323,6.0,12.0,49,0.00,,,0.00,WeatherTracker,2013-03-01 20:25:00,
2013-03-01 14:30:00,51.5,33.5,30.00,WNW,292,10.0,12.0,50,0.00,,,0.00,WeatherTracker,2013-03-01 20:30:00,
2013-03-01 14:35:00,51.5,33.0,30.00,North,349,6.0,15.0,49,0.00,,,0.00,WeatherTracker,2013-03-01 20:35:00,
2013-03-01 14:40:00,51.4,32.4,30.00,North,350,7.0,15.0,48,0.00,,,0.00,WeatherTracker,2013-03-01 20:40:00,
2013-03-01 14:45:00,51.3,33.3,30.00,NW,325,7.0,12.0,50,0.00,,,0.00,WeatherTracker,2013-03-01 20:45:00,
2013-03-01 14:50:00,51.3,33.3,30.00,North,9,9.0,14.0,50,0.00,,,0.00,WeatherTracker,2013-03-01 20:50:00,
2013-03-01 14:55:00,51.3,33.3,30.00,North,5,6.0,16.0,50,0.00,,,0.00,WeatherTracker,2013-03-01 20:55:00,
2013-03-01 15:00:00,51.2,32.7,30.00,NW,317,7.0,16.0,49,0.00,,,0.00,WeatherTracker,2013-03-01 21:00:00,
2013-03-01 15:05:00,51.2,33.2,30.00,NW,321,8.0,15.0,50,0.00,,,0.00,WeatherTracker,2013-03-01 21:05:00,
2013-03-01 15:10:00,50.9,34.4,30.00,North,355,9.0,15.0,53,0.00,,,0.00,WeatherTracker,2013-03-01 21:10:00,
2013-03-01 15:15:00,50.9,33.4,30.00,WNW,285,5.0,12.0,51,0.00,,,0.00,WeatherTracker,2013-03-01 21:15:00,
2013-03-01 15:20:00,51.5,34.5,30.00,NNE,13,10.0,13.0,52,0.00,,,0.00,WeatherTracker,2013-03-01 21:20:00,
2013-03-01 15:25:00,52.0,34.4,30.00,North,5,8.0,15.0,51,0.00,,,0.00,WeatherTracker,2013-03-01 21:25:00,
2013-03-01 15:30:00,52.3,34.7,29.99,North,355,6.0,15.0,51,0.00,,,0.00,WeatherTracker,2013-03-01 21:30:00,
2013-03-01 15:35:00,52.9,34.3,29.99,NNW,341,14.0,14.0,49,0.00,,,0.00,WeatherTracker,2013-03-01 21:35:00,
2013-03-01 15:40:00,53.3,34.1,29.99,WNW,286,8.0,15.0,48,0.00,,,0.00,WeatherTracker,2013-03-01 21:40:00,
2013-03-01 15:45:00,53.5,34.8,29.99,West,275,7.0,15.0,49,0.00,,,0.00,WeatherTracker,2013-03-01 21:45:00,
2013-03-01 15:51:00,53.5,34.3,29.99,NNW,347,7.0,18.0,48,0.00,,,0.00,WeatherTracker,2013-03-01 21:51:00,
2013-03-01 15:56:00,53.0,33.8,29.99,North,349,8.0,18.0,48,0.00,,,0.00,WeatherTracker,2013-03-01 21:56:00,
2013-03-01 16:01:00,52.3,33.7,29.99,NW,320,10.0,13.0,49,0.00,,,0.00,WeatherTracker,2013-03-01 22:01:00,
2013-03-01 16:06:00,51.3,32.8,29.99,NW,323,12.0,13.0,49,0.00,,,0.00,WeatherTracker,2013-03-01 22:06:00,
2013-03-01 16:11:00,51.0,33.0,29.99,NW,311,8.0,13.0,50,0.00,,,0.00,WeatherTracker,2013-03-01 22:11:00,
2013-03-01 16:16:00,51.1,33.1,29.98,WNW,300,7.0,12.0,50,0.00,,,0.00,WeatherTracker,2013-03-01 22:16:00,
2013-03-01 16:21:00,50.8,33.8,29.99,NW,317,6.0,10.0,52,0.00,,,0.00,WeatherTracker,2013-03-01 22:21:00,
2013-03-01 16:26:00,50.7,33.7,30.00,NW,323,9.0,11.0,52,0.00,,,0.00,WeatherTracker,2013-03-01 22:26:00,
2013-03-01 16:31:00,50.7,34.7,30.00,NNE,19,13.0,14.0,54,0.00,,,0.00,WeatherTracker,2013-03-01 22:31:00,
2013-03-01 16:36:00,50.5,33.5,30.00,NNW,338,10.0,15.0,52,0.00,,,0.00,WeatherTracker,2013-03-01 22:36:00,
2013-03-01 16:41:00,50.1,32.7,30.00,NNW,336,4.0,15.0,51,0.00,,,0.00,WeatherTracker,2013-03-01 22:41:00,
2013-03-01 16:46:00,49.9,33.5,30.00,North,5,5.0,15.0,53,0.00,,,0.00,WeatherTracker,2013-03-01 22:46:00,
2013-03-01 16:51:00,49.8,33.4,30.00,North,355,7.0,11.0,53,0.00,,,0.00,WeatherTracker,2013-03-01 22:51:00,
2013-03-01 16:57:00,49.7,33.3,30.00,North,360,10.0,12.0,53,0.00,,,0.00,WeatherTracker,2013-03-01 22:57:00,
2013-03-01 17:02:00,49.5,33.1,30.00,NNW,342,9.0,12.0,53,0.00,,,0.00,WeatherTracker,2013-03-01 23:02:00,
2013-03-01 17:07:00,49.3,33.4,30.01,NW,320,7.0,12.0,54,0.00,,,0.00,WeatherTracker,2013-03-01 23:07:00,
2013-03-01 17:12:00,49.1,33.2,30.01,North,355,10.0,15.0,54,0.00,,,0.00,WeatherTracker,2013-03-01 23:12:00,
2013-03-01 17:17:00,48.8,33.4,30.01,NNW,345,6.0,15.0,55,0.00,,,0.00,WeatherTracker,2013-03-01 23:17:00,
2013-03-01 17:22:00,48.5,33.5,30.01,North,355,9.0,12.0,56,0.00,,,0.00,WeatherTracker,2013-03-01 23:22:00,
2013-03-01 17:27:00,48.1,33.2,30.01,NNW,346,6.0,9.0,56,0.00,,,0.00,WeatherTracker,2013-03-01 23:27:00,
2013-03-01 17:32:00,47.8,33.3,30.01,North,355,6.0,11.0,57,0.00,,,0.00,WeatherTracker,2013-03-01 23:32:00,
2013-03-01 17:37:00,47.4,33.4,30.01,North,355,4.0,11.0,58,0.00,,,0.00,WeatherTracker,2013-03-01 23:37:00,
2013-03-01 17:42:00,47.1,33.1,30.02,NNW,344,5.0,9.0,58,0.00,,,0.00,WeatherTracker,2013-03-01 23:42:00,
2013-03-01 17:47:00,46.9,33.3,30.02,NNW,342,3.0,9.0,59,0.00,,,0.00,WeatherTracker,2013-03-01 23:47:00,
2013-03-01 17:52:00,46.4,34.5,30.02,NNW,342,2.0,7.0,63,0.00,,,0.00,WeatherTracker,2013-03-01 23:52:00,
2013-03-01 17:57:00,45.7,34.2,30.02,North,9,4.0,7.0,64,0.00,,,0.00,WeatherTracker,2013-03-01 23:57:00,
2013-03-01 18:02:00,45.2,34.1,30.02,NNE,12,2.0,7.0,65,0.00,,,0.00,WeatherTracker,2013-03-02 00:02:00,
2013-03-01 18:07:00,44.7,34.0,30.02,NNE,15,3.0,6.0,66,0.00,,,0.00,WeatherTracker,2013-03-02 00:07:00,
2013-03-01 18:12:00,44.3,34.4,30.02,NNE,14,2.0,6.0,68,0.00,,,0.00,WeatherTracker,2013-03-02 00:12:00,
2013-03-01 18:17:00,43.9,34.4,30.03,NNE,14,2.0,4.0,69,0.00,,,0.00,WeatherTracker,2013-03-02 00:17:00,
2013-03-01 18:22:00,43.4,34.3,30.03,NNE,14,3.0,3.0,70,0.00,,,0.00,WeatherTracker,2013-03-02 00:22:00,
2013-03-01 18:27:00,42.9,34.2,30.03,NNE,14,3.0,5.0,71,0.00,,,0.00,WeatherTracker,2013-03-02 00:27:00,
2013-03-01 18:32:00,42.7,34.0,30.04,North,9,5.0,7.0,71,0.00,,,0.00,WeatherTracker,2013-03-02 00:32:00,
2013-03-01 18:37:00,42.8,34.1,30.03,North,360,6.0,7.0,71,0.00,,,0.00,WeatherTracker,2013-03-02 00:37:00,
2013-03-01 18:42:00,42.7,34.0,30.04,North,355,5.0,7.0,71,0.00,,,0.00,WeatherTracker,2013-03-02 00:42:00,
2013-03-01 18:47:00,42.6,33.9,30.04,North,360,4.0,7.0,71,0.00,,,0.00,WeatherTracker,2013-03-02 00:47:00,
2013-03-01 18:53:00,42.4,34.0,30.04,North,360,3.0,6.0,72,0.00,,,0.00,WeatherTracker,2013-03-02 00:53:00,
2013-03-01 18:58:00,42.2,33.8,30.04,North,360,3.0,5.0,72,0.00,,,0.00,WeatherTracker,2013-03-02 00:58:00,
2013-03-01 19:03:00,41.9,33.9,30.04,North,360,3.0,4.0,73,0.00,,,0.00,WeatherTracker,2013-03-02 01:03:00,
2013-03-01 19:08:00,41.6,33.9,30.05,North,360,1.0,4.0,74,0.00,,,0.00,WeatherTracker,2013-03-02 01:08:00,
2013-03-01 19:13:00,41.3,34.0,30.04,North,360,2.0,4.0,75,0.00,,,0.00,WeatherTracker,2013-03-02 01:13:00,
2013-03-01 19:18:00,40.9,33.6,30.04,North,360,2.0,4.0,75,0.00,,,0.00,WeatherTracker,2013-03-02 01:18:00,
2013-03-01 19:23:00,40.6,33.6,30.05,North,355,4.0,4.0,76,0.00,,,0.00,WeatherTracker,2013-03-02 01:23:00,
2013-03-01 19:28:00,40.5,33.5,30.05,North,355,3.0,5.0,76,0.00,,,0.00,WeatherTracker,2013-03-02 01:28:00,
2013-03-01 19:33:00,40.5,33.5,30.05,North,355,3.0,5.0,76,0.00,,,0.00,WeatherTracker,2013-03-02 01:33:00,
2013-03-01 19:38:00,40.5,33.5,30.05,North,355,3.0,5.0,76,0.00,,,0.00,WeatherTracker,2013-03-02 01:38:00,
2013-03-01 19:43:00,40.3,33.3,30.05,North,355,3.0,5.0,76,0.00,,,0.00,WeatherTracker,2013-03-02 01:43:00,
2013-03-01 19:48:00,40.1,33.5,30.05,North,355,2.0,4.0,77,0.00,,,0.00,WeatherTracker,2013-03-02 01:48:00,
2013-03-01 19:53:00,39.8,33.2,30.05,North,355,3.0,4.0,77,0.00,,,0.00,WeatherTracker,2013-03-02 01:53:00,
2013-03-01 19:58:00,39.6,33.3,30.05,North,355,2.0,3.0,78,0.00,,,0.00,WeatherTracker,2013-03-02 01:58:00,
2013-03-01 20:03:00,39.3,33.0,30.06,North,355,3.0,4.0,78,0.00,,,0.00,WeatherTracker,2013-03-02 02:03:00,
2013-03-01 20:08:00,39.3,33.0,30.06,North,355,3.0,5.0,78,0.00,,,0.00,WeatherTracker,2013-03-02 02:08:00,
2013-03-01 20:14:00,39.6,33.0,30.06,North,355,5.0,7.0,77,0.00,,,0.00,WeatherTracker,2013-03-02 02:14:00,
2013-03-01 20:19:00,39.8,33.2,30.06,North,355,5.0,7.0,77,0.00,,,0.00,WeatherTracker,2013-03-02 02:19:00,
2013-03-01 20:24:00,39.9,33.0,30.06,North,355,5.0,7.0,76,0.00,,,0.00,WeatherTracker,2013-03-02 02:24:00,
2013-03-01 20:29:00,40.1,33.2,30.06,North,355,3.0,7.0,76,0.00,,,0.00,WeatherTracker,2013-03-02 02:29:00,
2013-03-01 20:34:00,40.2,33.3,30.06,North,350,4.0,7.0,76,0.00,,,0.00,WeatherTracker,2013-03-02 02:34:00,
2013-03-01 20:39:00,40.2,32.9,30.07,NNW,346,6.0,10.0,75,0.00,,,0.00,WeatherTracker,2013-03-02 02:39:00,
2013-03-01 20:44:00,40.3,32.7,30.07,NNW,339,4.0,10.0,74,0.00,,,0.00,WeatherTracker,2013-03-02 02:44:00,
2013-03-01 20:49:00,40.5,32.5,30.07,North,350,3.0,8.0,73,0.00,,,0.00,WeatherTracker,2013-03-02 02:49:00,
2013-03-01 20:54:00,40.5,32.5,30.07,North,355,9.0,9.0,73,0.00,,,0.00,WeatherTracker,2013-03-02 02:54:00,
2013-03-01 20:59:00,40.5,32.5,30.07,North,360,5.0,11.0,73,0.00,,,0.00,WeatherTracker,2013-03-02 02:59:00,
2013-03-01 21:04:00,40.4,32.4,30.07,North,355,6.0,11.0,73,0.00,,,0.00,WeatherTracker,2013-03-02 03:04:00,
2013-03-01 21:09:00,40.3,32.3,30.07,NW,310,4.0,10.0,73,0.00,,,0.00,WeatherTracker,2013-03-02 03:09:00,
2013-03-01 21:14:00,40.1,32.2,30.07,North,355,5.0,9.0,73,0.00,,,0.00,WeatherTracker,2013-03-02 03:14:00,
2013-03-01 21:19:00,40.0,32.1,30.07,NNW,344,8.0,10.0,73,0.00,,,0.00,WeatherTracker,2013-03-02 03:19:00,
2013-03-01 21:24:00,39.8,31.9,30.07,NNW,340,8.0,10.0,73,0.00,,,0.00,WeatherTracker,2013-03-02 03:24:00,
2013-03-01 21:29:00,39.7,31.8,30.08,NW,321,6.0,8.0,73,0.00,,,0.00,WeatherTracker,2013-03-02 03:29:00,
2013-03-01 21:34:00,39.5,31.6,30.08,North,10,5.0,8.0,73,0.00,,,0.00,WeatherTracker,2013-03-02 03:34:00,
2013-03-01 21:39:00,39.3,31.7,30.08,North,349,7.0,9.0,74,0.00,,,0.00,WeatherTracker,2013-03-02 03:39:00,
2013-03-01 21:44:00,39.2,31.6,30.08,NNW,329,5.0,9.0,74,0.00,,,0.00,WeatherTracker,2013-03-02 03:44:00,
2013-03-01 21:50:00,39.0,31.4,30.08,NW,325,3.0,9.0,74,0.00,,,0.00,WeatherTracker,2013-03-02 03:50:00,
2013-03-01 21:55:00,38.7,31.5,30.08,NNW,343,5.0,9.0,75,0.00,,,0.00,WeatherTracker,2013-03-02 03:55:00,
2013-03-01 22:00:00,38.6,31.4,30.08,NNW,342,8.0,9.0,75,0.00,,,0.00,WeatherTracker,2013-03-02 04:00:00,
2013-03-01 22:05:00,38.5,31.3,30.09,NNW,332,4.0,9.0,75,0.00,,,0.00,WeatherTracker,2013-03-02 04:05:00,
2013-03-01 22:10:00,38.4,31.2,30.09,North,351,6.0,9.0,75,0.00,,,0.00,WeatherTracker,2013-03-02 04:10:00,
2013-03-01 22:15:00,38.3,31.1,30.09,NNW,340,6.0,9.0,75,0.00,,,0.00,WeatherTracker,2013-03-02 04:15:00,
2013-03-01 22:20:00,38.2,30.7,30.08,North,350,2.0,9.0,74,0.00,,,0.00,WeatherTracker,2013-03-02 04:20:00,
2013-03-01 22:25:00,38.2,31.0,30.09,NW,319,6.0,9.0,75,0.00,,,0.00,WeatherTracker,2013-03-02 04:25:00,
2013-03-01 22:30:00,38.0,30.8,30.09,NNW,335,6.0,10.0,75,0.00,,,0.00,WeatherTracker,2013-03-02 04:30:00,
2013-03-01 22:35:00,37.8,30.6,30.09,NNW,346,6.0,10.0,75,0.00,,,0.00,WeatherTracker,2013-03-02 04:35:00,
2013-03-01 22:40:00,37.6,30.7,30.09,North,355,6.0,8.0,76,0.00,,,0.00,WeatherTracker,2013-03-02 04:40:00,
2013-03-01 22:45:00,37.4,30.5,30.09,NW,313,4.0,9.0,76,0.00,,,0.00,WeatherTracker,2013-03-02 04:45:00,
2013-03-01 22:50:00,37.3,30.4,30.09,NW,325,4.0,9.0,76,0.00,,,0.00,WeatherTracker,2013-03-02 04:50:00,
2013-03-01 22:55:00,37.1,30.6,30.09,NNW,340,8.0,9.0,77,0.00,,,0.00,WeatherTracker,2013-03-02 04:55:00,
2013-03-01 23:00:00,37.1,30.6,30.09,NNW,336,8.0,9.0,77,0.00,,,0.00,WeatherTracker,2013-03-02 05:00:00,
2013-03-01 23:05:00,37.0,30.2,30.09,NNW,340,12.0,12.0,76,0.00,,,0.00,WeatherTracker,2013-03-02 05:05:00,
2013-03-01 23:10:00,37.0,30.2,30.09,NNW,337,8.0,12.0,76,0.00,,,0.00,WeatherTracker,2013-03-02 05:10:00,
2013-03-01 23:15:00,37.0,29.5,30.09,NNW,336,7.0,13.0,74,0.00,,,0.00,WeatherTracker,2013-03-02 05:15:00,
2013-03-01 23:20:00,37.0,29.5,30.09,NW,313,6.0,13.0,74,0.00,,,0.00,WeatherTracker,2013-03-02 05:20:00,
2013-03-01 23:25:00,36.8,29.3,30.09,NW,323,6.0,10.0,74,0.00,,,0.00,WeatherTracker,2013-03-02 05:25:00,
2013-03-01 23:30:00,36.7,29.2,30.08,NNW,338,5.0,10.0,74,0.00,,,0.00,WeatherTracker,2013-03-02 05:30:00,
2013-03-01 23:35:00,36.6,28.8,30.08,NNW,348,4.0,12.0,73,0.00,,,0.00,WeatherTracker,2013-03-02 05:35:00,
2013-03-01 23:40:00,36.6,28.8,30.09,NNW,342,10.0,12.0,73,0.00,,,0.00,WeatherTracker,2013-03-02 05:40:00,
2013-03-01 23:45:00,36.6,28.4,30.09,NW,321,8.0,14.0,72,0.00,,,0.00,WeatherTracker,2013-03-02 05:45:00,
2013-03-01 23:50:00,36.6,28.4,30.09,NNW,333,9.0,14.0,72,0.00,,,0.00,WeatherTracker,2013-03-02 05:50:00,
2013-03-01 23:56:00,36.6,28.4,30.09,North,355,7.0,14.0,72,0.00,,,0.00,WeatherTracker,2013-03-02 05:56:00,